Year,Month,Day,Hour,Minute,Value (Times are PST for temperature in C)
2007,08,30,00,00,21.40
2007,08,30,00,01,21.40
2007,08,30,00,02,21.60
2007,08,30,00,03,21.60
2007,08,30,00,04,21.60
2007,08,30,00,05,21.60
2007,08,30,00,06,21.60
2007,08,30,00,07,21.60
2007,08,30,00,08,21.60
2007,08,30,00,09,21.60
2007,08,30,00,10,21.60
2007,08,30,00,11,21.60
2007,08,30,00,12,21.70
2007,08,30,00,13,21.70
2007,08,30,00,14,21.70
2007,08,30,00,15,21.70
2007,08,30,00,16,21.70
2007,08,30,00,17,21.70
2007,08,30,00,18,21.80
2007,08,30,00,19,21.80
2007,08,30,00,20,21.80
2007,08,30,00,21,21.80
2007,08,30,00,22,21.80
2007,08,30,00,23,21.80
2007,08,30,00,24,21.80
2007,08,30,00,25,21.90
2007,08,30,00,26,21.90
2007,08,30,00,27,21.90
2007,08,30,00,28,22.00
2007,08,30,00,29,22.00
2007,08,30,00,30,22.00
2007,08,30,00,31,22.00
2007,08,30,00,32,22.00
2007,08,30,00,33,22.00
2007,08,30,00,34,22.00
2007,08,30,00,35,22.00
2007,08,30,00,36,22.00
2007,08,30,00,37,21.90
2007,08,30,00,38,21.90
2007,08,30,00,39,21.90
2007,08,30,00,40,21.90
2007,08,30,00,41,21.90
2007,08,30,00,42,21.90
2007,08,30,00,43,21.90
2007,08,30,00,44,21.90
2007,08,30,00,45,21.90
2007,08,30,00,46,21.90
2007,08,30,00,47,21.80
2007,08,30,00,48,21.70
2007,08,30,00,49,21.60
2007,08,30,00,50,21.40
2007,08,30,00,51,21.30
2007,08,30,00,52,21.20
2007,08,30,00,53,21.00
2007,08,30,00,54,20.80
2007,08,30,00,55,20.70
2007,08,30,00,56,20.50
2007,08,30,00,57,20.30
2007,08,30,00,58,20.20
2007,08,30,00,59,20.00
2007,08,30,01,00,19.80
2007,08,30,01,01,19.70
2007,08,30,01,02,19.60
2007,08,30,01,03,19.40
2007,08,30,01,04,19.30
2007,08,30,01,05,19.10
2007,08,30,01,06,18.90
2007,08,30,01,07,18.70
2007,08,30,01,08,18.50
2007,08,30,01,09,18.40
2007,08,30,01,10,18.20
2007,08,30,01,11,18.10
2007,08,30,01,12,18.00
2007,08,30,01,13,17.90
2007,08,30,01,14,17.90
2007,08,30,01,15,17.80
2007,08,30,01,16,17.80
2007,08,30,01,17,17.70
2007,08,30,01,18,17.70
2007,08,30,01,19,17.70
2007,08,30,01,20,17.60
2007,08,30,01,21,17.50
2007,08,30,01,22,17.50
2007,08,30,01,23,17.50
2007,08,30,01,24,17.50
2007,08,30,01,25,17.50
2007,08,30,01,26,17.50
2007,08,30,01,27,17.50
2007,08,30,01,28,17.40
2007,08,30,01,29,17.40
2007,08,30,01,30,17.40
2007,08,30,01,31,17.40
2007,08,30,01,32,17.30
2007,08,30,01,33,17.30
2007,08,30,01,34,17.30
2007,08,30,01,35,17.30
2007,08,30,01,36,17.20
2007,08,30,01,37,17.10
2007,08,30,01,38,17.10
2007,08,30,01,39,17.00
2007,08,30,01,40,17.00
2007,08,30,01,41,17.00
2007,08,30,01,42,17.00
2007,08,30,01,43,16.90
2007,08,30,01,44,16.90
2007,08,30,01,45,16.90
2007,08,30,01,46,16.90
2007,08,30,01,47,16.80
2007,08,30,01,48,16.80
2007,08,30,01,49,16.80
2007,08,30,01,50,16.80
2007,08,30,01,51,16.70
2007,08,30,01,52,16.70
2007,08,30,01,53,16.70
2007,08,30,01,54,16.70
2007,08,30,01,55,16.70
2007,08,30,01,56,16.70
2007,08,30,01,57,16.70
2007,08,30,01,58,16.70
2007,08,30,01,59,16.70
2007,08,30,02,00,16.70
2007,08,30,02,01,16.70
2007,08,30,02,02,16.70
2007,08,30,02,03,16.70
2007,08,30,02,04,16.70
2007,08,30,02,05,16.70
2007,08,30,02,06,16.60
2007,08,30,02,07,16.60
2007,08,30,02,08,16.60
2007,08,30,02,09,16.50
2007,08,30,02,10,16.40
2007,08,30,02,11,16.40
2007,08,30,02,12,16.40
2007,08,30,02,13,16.40
2007,08,30,02,14,16.30
2007,08,30,02,15,16.30
2007,08,30,02,16,16.30
2007,08,30,02,17,16.30
2007,08,30,02,18,16.30
2007,08,30,02,19,16.20
2007,08,30,02,20,16.20
2007,08,30,02,21,16.20
2007,08,30,02,22,16.20
2007,08,30,02,23,16.20
2007,08,30,02,24,16.20
2007,08,30,02,25,16.20
2007,08,30,02,26,16.20
2007,08,30,02,27,16.20
2007,08,30,02,28,16.20
2007,08,30,02,29,16.10
2007,08,30,02,30,16.10
2007,08,30,02,31,16.10
2007,08,30,02,32,16.10
2007,08,30,02,33,16.10
2007,08,30,02,34,16.10
2007,08,30,02,35,16.10
2007,08,30,02,36,16.10
2007,08,30,02,37,16.10
2007,08,30,02,38,16.10
2007,08,30,02,39,16.10
2007,08,30,02,40,16.10
2007,08,30,02,41,16.10
2007,08,30,02,42,15.90
2007,08,30,02,43,15.90
2007,08,30,02,44,15.90
2007,08,30,02,45,15.90
2007,08,30,02,46,15.90
2007,08,30,02,47,15.90
2007,08,30,02,48,15.90
2007,08,30,02,49,15.90
2007,08,30,02,50,15.90
2007,08,30,02,51,15.90
2007,08,30,02,52,15.90
2007,08,30,02,53,15.90
2007,08,30,02,54,15.90
2007,08,30,02,55,15.90
2007,08,30,02,56,15.90
2007,08,30,02,57,15.90
2007,08,30,02,58,15.80
2007,08,30,02,59,15.80
2007,08,30,03,00,15.80
2007,08,30,03,01,15.80
2007,08,30,03,02,15.80
2007,08,30,03,03,15.80
2007,08,30,03,04,15.80
2007,08,30,03,05,15.80
2007,08,30,03,06,15.80
2007,08,30,03,07,15.80
2007,08,30,03,08,15.80
2007,08,30,03,09,15.70
2007,08,30,03,10,15.70
2007,08,30,03,11,15.70
2007,08,30,03,12,15.70
2007,08,30,03,13,15.60
2007,08,30,03,14,15.60
2007,08,30,03,15,15.60
2007,08,30,03,16,15.60
2007,08,30,03,17,15.60
2007,08,30,03,18,15.50
2007,08,30,03,19,15.50
2007,08,30,03,20,15.60
2007,08,30,03,21,15.60
2007,08,30,03,22,15.60
2007,08,30,03,23,15.60
2007,08,30,03,24,15.60
2007,08,30,03,25,15.60
2007,08,30,03,26,15.60
2007,08,30,03,27,15.60
2007,08,30,03,28,15.60
2007,08,30,03,29,15.60
2007,08,30,03,30,15.60
2007,08,30,03,31,15.60
2007,08,30,03,32,15.60
2007,08,30,03,33,15.60
2007,08,30,03,34,15.60
2007,08,30,03,35,15.50
2007,08,30,03,36,15.50
2007,08,30,03,37,15.50
2007,08,30,03,38,15.50
2007,08,30,03,39,15.50
2007,08,30,03,40,15.40
2007,08,30,03,41,15.40
2007,08,30,03,42,15.40
2007,08,30,03,43,15.40
2007,08,30,03,44,15.30
2007,08,30,03,45,15.30
2007,08,30,03,46,15.30
2007,08,30,03,47,15.30
2007,08,30,03,48,15.30
2007,08,30,03,49,15.30
2007,08,30,03,50,15.20
2007,08,30,03,51,15.20
2007,08,30,03,52,15.20
2007,08,30,03,53,15.20
2007,08,30,03,54,15.20
2007,08,30,03,55,15.20
2007,08,30,03,56,15.20
2007,08,30,03,57,15.20
2007,08,30,03,58,15.10
2007,08,30,03,59,15.10
2007,08,30,04,00,15.10
2007,08,30,04,01,15.10
2007,08,30,04,02,15.00
2007,08,30,04,03,15.00
2007,08,30,04,04,15.00
2007,08,30,04,05,15.00
2007,08,30,04,06,14.90
2007,08,30,04,07,14.90
2007,08,30,04,08,14.90
2007,08,30,04,09,14.90
2007,08,30,04,10,14.80
2007,08,30,04,11,14.80
2007,08,30,04,12,14.80
2007,08,30,04,13,14.80
2007,08,30,04,14,14.80
2007,08,30,04,15,14.80
2007,08,30,04,16,14.80
2007,08,30,04,17,14.80
2007,08,30,04,18,14.80
2007,08,30,04,19,14.80
2007,08,30,04,20,14.80
2007,08,30,04,21,14.80
2007,08,30,04,22,14.70
2007,08,30,04,23,14.70
2007,08,30,04,24,14.70
2007,08,30,04,25,14.70
2007,08,30,04,26,14.60
2007,08,30,04,27,14.60
2007,08,30,04,28,14.60
2007,08,30,04,29,14.60
2007,08,30,04,30,14.50
2007,08,30,04,31,14.50
2007,08,30,04,32,14.50
2007,08,30,04,33,14.50
2007,08,30,04,34,14.50
2007,08,30,04,35,14.50
2007,08,30,04,36,14.50
2007,08,30,04,37,14.50
2007,08,30,04,38,14.50
2007,08,30,04,39,14.50
2007,08,30,04,40,14.50
2007,08,30,04,41,14.40
2007,08,30,04,42,14.40
2007,08,30,04,43,14.40
2007,08,30,04,44,14.40
2007,08,30,04,45,14.30
2007,08,30,04,46,14.30
2007,08,30,04,47,14.30
2007,08,30,04,48,14.30
2007,08,30,04,49,14.20
2007,08,30,04,50,14.20
2007,08,30,04,51,14.20
2007,08,30,04,52,14.20
2007,08,30,04,53,14.20
2007,08,30,04,54,14.20
2007,08,30,04,55,14.20
2007,08,30,04,56,14.20
2007,08,30,04,57,14.20
2007,08,30,04,58,14.20
2007,08,30,04,59,14.20
2007,08,30,05,00,14.20
2007,08,30,05,01,14.20
2007,08,30,05,02,14.10
2007,08,30,05,03,14.10
2007,08,30,05,04,14.10
2007,08,30,05,05,14.10
2007,08,30,05,06,14.10
2007,08,30,05,07,14.10
2007,08,30,05,08,14.10
2007,08,30,05,09,14.10
2007,08,30,05,10,14.10
2007,08,30,05,11,14.10
2007,08,30,05,12,14.10
2007,08,30,05,13,14.00
2007,08,30,05,14,14.00
2007,08,30,05,15,14.00
2007,08,30,05,16,14.00
2007,08,30,05,17,14.00
2007,08,30,05,18,14.00
2007,08,30,05,19,14.00
2007,08,30,05,20,13.90
2007,08,30,05,21,13.90
2007,08,30,05,22,13.90
2007,08,30,05,23,13.90
2007,08,30,05,24,13.90
2007,08,30,05,25,13.90
2007,08,30,05,26,13.90
2007,08,30,05,27,13.90
2007,08,30,05,28,13.90
2007,08,30,05,29,13.80
2007,08,30,05,30,13.80
2007,08,30,05,31,13.80
2007,08,30,05,32,13.80
2007,08,30,05,33,13.80
2007,08,30,05,34,13.80
2007,08,30,05,35,13.80
2007,08,30,05,36,13.80
2007,08,30,05,37,13.80
2007,08,30,05,38,13.80
2007,08,30,05,39,13.80
2007,08,30,05,40,13.80
2007,08,30,05,41,13.80
2007,08,30,05,42,13.80
2007,08,30,05,43,13.80
2007,08,30,05,44,13.80
2007,08,30,05,45,13.70
2007,08,30,05,46,13.70
2007,08,30,05,47,13.70
2007,08,30,05,48,13.70
2007,08,30,05,49,13.70
2007,08,30,05,50,13.70
2007,08,30,05,51,13.70
2007,08,30,05,52,13.70
2007,08,30,05,53,13.70
2007,08,30,05,54,13.60
2007,08,30,05,55,13.60
2007,08,30,05,56,13.60
2007,08,30,05,57,13.60
2007,08,30,05,58,13.60
2007,08,30,05,59,13.60
2007,08,30,06,00,13.60
2007,08,30,06,01,13.60
2007,08,30,06,02,13.50
2007,08,30,06,03,13.60
2007,08,30,06,04,13.50
2007,08,30,06,05,13.50
2007,08,30,06,06,13.50
2007,08,30,06,07,13.50
2007,08,30,06,08,13.50
2007,08,30,06,09,13.50
2007,08,30,06,10,13.50
2007,08,30,06,11,13.40
2007,08,30,06,12,13.40
2007,08,30,06,13,13.40
2007,08,30,06,14,13.40
2007,08,30,06,15,13.40
2007,08,30,06,16,13.40
2007,08,30,06,17,13.40
2007,08,30,06,18,13.40
2007,08,30,06,19,13.40
2007,08,30,06,20,13.40
2007,08,30,06,21,13.40
2007,08,30,06,22,13.40
2007,08,30,06,23,13.50
2007,08,30,06,24,13.50
2007,08,30,06,25,13.50
2007,08,30,06,26,13.50
2007,08,30,06,27,13.50
2007,08,30,06,28,13.50
2007,08,30,06,29,13.50
2007,08,30,06,30,13.50
2007,08,30,06,31,13.50
2007,08,30,06,32,13.40
2007,08,30,06,33,13.40
2007,08,30,06,34,13.40
2007,08,30,06,35,13.40
2007,08,30,06,36,13.40
2007,08,30,06,37,13.30
2007,08,30,06,38,13.30
2007,08,30,06,39,13.30
2007,08,30,06,40,13.30
2007,08,30,06,41,13.30
2007,08,30,06,42,13.30
2007,08,30,06,43,13.30
2007,08,30,06,44,13.30
2007,08,30,06,45,13.30
2007,08,30,06,46,13.30
2007,08,30,06,47,13.30
2007,08,30,06,48,13.30
2007,08,30,06,49,13.30
2007,08,30,06,50,13.30
2007,08,30,06,51,13.30
2007,08,30,06,52,13.30
2007,08,30,06,53,13.30
2007,08,30,06,54,13.30
2007,08,30,06,55,13.30
2007,08,30,06,56,13.30
2007,08,30,06,57,13.30
2007,08,30,06,58,13.30
2007,08,30,06,59,13.30
2007,08,30,07,00,13.30
2007,08,30,07,01,13.30
2007,08,30,07,02,13.30
2007,08,30,07,03,13.30
2007,08,30,07,04,13.30
2007,08,30,07,05,13.30
2007,08,30,07,06,13.40
2007,08,30,07,07,13.40
2007,08,30,07,08,13.40
2007,08,30,07,09,13.40
2007,08,30,07,10,13.40
2007,08,30,07,11,13.40
2007,08,30,07,12,13.40
2007,08,30,07,13,13.40
2007,08,30,07,14,13.50
2007,08,30,07,15,13.50
2007,08,30,07,16,13.50
2007,08,30,07,17,13.50
2007,08,30,07,18,13.50
2007,08,30,07,19,13.50
2007,08,30,07,20,13.60
2007,08,30,07,21,13.60
2007,08,30,07,22,13.60
2007,08,30,07,23,13.60
2007,08,30,07,24,13.60
2007,08,30,07,25,13.60
2007,08,30,07,26,13.50
2007,08,30,07,27,13.60
2007,08,30,07,28,13.60
2007,08,30,07,29,13.60
2007,08,30,07,30,13.50
2007,08,30,07,31,13.50
2007,08,30,07,32,13.50
2007,08,30,07,33,13.50
2007,08,30,07,34,13.50
2007,08,30,07,35,13.50
2007,08,30,07,36,13.50
2007,08,30,07,37,13.50
2007,08,30,07,38,13.50
2007,08,30,07,39,13.50
2007,08,30,07,40,13.60
2007,08,30,07,41,13.60
2007,08,30,07,42,13.60
2007,08,30,07,43,13.60
2007,08,30,07,44,13.60
2007,08,30,07,45,13.60
2007,08,30,07,46,13.60
2007,08,30,07,47,13.60
2007,08,30,07,48,13.60
2007,08,30,07,49,13.70
2007,08,30,07,50,13.70
2007,08,30,07,51,13.70
2007,08,30,07,52,13.70
2007,08,30,07,53,13.70
2007,08,30,07,54,13.70
2007,08,30,07,55,13.70
2007,08,30,07,56,13.70
2007,08,30,07,57,13.70
2007,08,30,07,58,13.80
2007,08,30,07,59,13.80
2007,08,30,08,00,13.80
2007,08,30,08,01,13.90
2007,08,30,08,02,13.90
2007,08,30,08,03,13.90
2007,08,30,08,04,14.00
2007,08,30,08,05,14.10
2007,08,30,08,06,14.10
2007,08,30,08,07,14.10
2007,08,30,08,08,14.20
2007,08,30,08,09,14.20
2007,08,30,08,10,14.30
2007,08,30,08,11,14.40
2007,08,30,08,12,14.50
2007,08,30,08,13,14.60
2007,08,30,08,14,14.70
2007,08,30,08,15,14.90
2007,08,30,08,16,15.00
2007,08,30,08,17,15.20
2007,08,30,08,18,15.30
2007,08,30,08,19,15.50
2007,08,30,08,20,15.70
2007,08,30,08,21,15.80
2007,08,30,08,22,15.90
2007,08,30,08,23,16.00
2007,08,30,08,24,16.10
2007,08,30,08,25,16.10
2007,08,30,08,26,16.10
2007,08,30,08,27,16.10
2007,08,30,08,28,16.10
2007,08,30,08,29,16.10
2007,08,30,08,30,16.10
2007,08,30,08,31,16.10
2007,08,30,08,32,16.10
2007,08,30,08,33,16.10
2007,08,30,08,34,16.10
2007,08,30,08,35,16.20
2007,08,30,08,36,16.20
2007,08,30,08,37,16.30
2007,08,30,08,38,16.30
2007,08,30,08,39,16.40
2007,08,30,08,40,16.50
2007,08,30,08,41,16.60
2007,08,30,08,42,16.80
2007,08,30,08,43,16.90
2007,08,30,08,44,17.00
2007,08,30,08,45,17.20
2007,08,30,08,46,17.30
2007,08,30,08,47,17.40
2007,08,30,08,48,17.60
2007,08,30,08,49,17.80
2007,08,30,08,50,18.00
2007,08,30,08,51,18.20
2007,08,30,08,52,18.30
2007,08,30,08,53,18.50
2007,08,30,08,54,18.60
2007,08,30,08,55,18.70
2007,08,30,08,56,18.90
2007,08,30,08,57,19.00
2007,08,30,08,58,19.10
2007,08,30,08,59,19.20
2007,08,30,09,00,19.30
2007,08,30,09,01,19.30
2007,08,30,09,02,19.30
2007,08,30,09,03,19.30
2007,08,30,09,04,19.30
2007,08,30,09,05,19.40
2007,08,30,09,06,19.50
2007,08,30,09,07,19.70
2007,08,30,09,08,19.80
2007,08,30,09,09,19.90
2007,08,30,09,10,19.90
2007,08,30,09,11,19.90
2007,08,30,09,12,19.90
2007,08,30,09,13,19.90
2007,08,30,09,14,19.80
2007,08,30,09,15,19.80
2007,08,30,09,16,19.80
2007,08,30,09,17,19.80
2007,08,30,09,18,19.70
2007,08,30,09,19,19.70
2007,08,30,09,20,19.70
2007,08,30,09,21,19.70
2007,08,30,09,22,19.70
2007,08,30,09,23,19.70
2007,08,30,09,24,19.70
2007,08,30,09,25,19.60
2007,08,30,09,26,19.60
2007,08,30,09,27,19.60
2007,08,30,09,28,19.60
2007,08,30,09,29,19.60
2007,08,30,09,30,19.50
2007,08,30,09,31,19.40
2007,08,30,09,32,19.20
2007,08,30,09,33,19.00
2007,08,30,09,34,18.90
2007,08,30,09,35,18.90
2007,08,30,09,36,18.90
2007,08,30,09,37,18.80
2007,08,30,09,38,18.70
2007,08,30,09,39,18.70
2007,08,30,09,40,18.70
2007,08,30,09,41,18.70
2007,08,30,09,42,18.80
2007,08,30,09,43,18.70
2007,08,30,09,44,18.70
2007,08,30,09,45,18.70
2007,08,30,09,46,18.80
2007,08,30,09,47,18.80
2007,08,30,09,48,18.90
2007,08,30,09,49,19.00
2007,08,30,09,50,19.10
2007,08,30,09,51,19.10
2007,08,30,09,52,19.20
2007,08,30,09,53,19.30
2007,08,30,09,54,19.40
2007,08,30,09,55,19.40
2007,08,30,09,56,19.30
2007,08,30,09,57,19.30
2007,08,30,09,58,19.30
2007,08,30,09,59,19.30
2007,08,30,10,00,19.40
2007,08,30,10,01,19.50
2007,08,30,10,02,19.50
2007,08,30,10,03,19.60
2007,08,30,10,04,19.70
2007,08,30,10,05,19.60
2007,08,30,10,06,19.60
2007,08,30,10,07,19.70
2007,08,30,10,08,19.80
2007,08,30,10,09,19.90
2007,08,30,10,10,20.00
2007,08,30,10,11,20.20
2007,08,30,10,12,20.30
2007,08,30,10,13,20.40
2007,08,30,10,14,20.50
2007,08,30,10,15,20.50
2007,08,30,10,16,20.60
2007,08,30,10,17,20.60
2007,08,30,10,18,20.70
2007,08,30,10,19,20.80
2007,08,30,10,20,21.00
2007,08,30,10,21,21.20
2007,08,30,10,22,21.50
2007,08,30,10,23,21.60
2007,08,30,10,24,21.70
2007,08,30,10,25,21.80
2007,08,30,10,26,21.70
2007,08,30,10,27,21.70
2007,08,30,10,28,21.70
2007,08,30,10,29,21.70
2007,08,30,10,30,21.80
2007,08,30,10,31,21.80
2007,08,30,10,32,21.80
2007,08,30,10,33,21.70
2007,08,30,10,34,21.60
2007,08,30,10,35,21.60
2007,08,30,10,36,21.60
2007,08,30,10,37,21.60
2007,08,30,10,38,21.60
2007,08,30,10,39,21.60
2007,08,30,10,40,21.70
2007,08,30,10,41,21.80
2007,08,30,10,42,21.80
2007,08,30,10,43,21.90
2007,08,30,10,44,22.00
2007,08,30,10,45,22.00
2007,08,30,10,46,22.20
2007,08,30,10,47,22.40
2007,08,30,10,48,22.60
2007,08,30,10,49,22.80
2007,08,30,10,50,23.00
2007,08,30,10,51,23.10
2007,08,30,10,52,23.20
2007,08,30,10,53,23.20
2007,08,30,10,54,23.30
2007,08,30,10,55,23.30
2007,08,30,10,56,23.40
2007,08,30,10,57,23.40
2007,08,30,10,58,23.50
2007,08,30,10,59,23.60
2007,08,30,11,00,23.70
2007,08,30,11,01,23.60
2007,08,30,11,02,23.60
2007,08,30,11,03,23.50
2007,08,30,11,04,23.20
2007,08,30,11,05,23.10
2007,08,30,11,06,23.10
2007,08,30,11,07,23.10
2007,08,30,11,08,23.10
2007,08,30,11,09,23.10
2007,08,30,11,10,22.90
2007,08,30,11,11,22.90
2007,08,30,11,12,22.90
2007,08,30,11,13,22.90
2007,08,30,11,14,22.90
2007,08,30,11,15,22.90
2007,08,30,11,16,22.80
2007,08,30,11,17,22.80
2007,08,30,11,18,22.80
2007,08,30,11,19,22.80
2007,08,30,11,20,22.80
2007,08,30,11,21,22.80
2007,08,30,11,22,22.70
2007,08,30,11,23,22.60
2007,08,30,11,24,22.50
2007,08,30,11,25,22.50
2007,08,30,11,26,22.50
2007,08,30,11,27,22.70
2007,08,30,11,28,22.80
2007,08,30,11,29,22.90
2007,08,30,11,30,23.00
2007,08,30,11,31,23.10
2007,08,30,11,32,23.10
2007,08,30,11,33,23.00
2007,08,30,11,34,22.90
2007,08,30,11,35,22.90
2007,08,30,11,36,22.90
2007,08,30,11,37,22.90
2007,08,30,11,38,23.00
2007,08,30,11,39,23.10
2007,08,30,11,40,23.20
2007,08,30,11,41,23.30
2007,08,30,11,42,23.30
2007,08,30,11,43,23.40
2007,08,30,11,44,23.40
2007,08,30,11,45,23.50
2007,08,30,11,46,23.60
2007,08,30,11,47,23.60
2007,08,30,11,48,23.60
2007,08,30,11,49,23.70
2007,08,30,11,50,23.70
2007,08,30,11,51,23.70
2007,08,30,11,52,23.70
2007,08,30,11,53,23.70
2007,08,30,11,54,23.70
2007,08,30,11,55,23.70
2007,08,30,11,56,23.70
2007,08,30,11,57,23.70
2007,08,30,11,58,23.80
2007,08,30,11,59,23.90
2007,08,30,12,00,24.00
2007,08,30,12,01,24.10
2007,08,30,12,02,24.10
2007,08,30,12,03,24.20
2007,08,30,12,04,24.20
2007,08,30,12,05,24.30
2007,08,30,12,06,24.40
2007,08,30,12,07,24.50
2007,08,30,12,08,24.80
2007,08,30,12,09,24.90
2007,08,30,12,10,25.10
2007,08,30,12,11,25.20
2007,08,30,12,12,25.20
2007,08,30,12,13,25.20
2007,08,30,12,14,25.30
2007,08,30,12,15,25.40
2007,08,30,12,16,25.50
2007,08,30,12,17,25.60
2007,08,30,12,18,25.70
2007,08,30,12,19,25.70
2007,08,30,12,20,25.70
2007,08,30,12,21,25.80
2007,08,30,12,22,25.80
2007,08,30,12,23,25.80
2007,08,30,12,24,25.80
2007,08,30,12,25,25.80
2007,08,30,12,26,25.80
2007,08,30,12,27,25.80
2007,08,30,12,28,25.80
2007,08,30,12,29,25.80
2007,08,30,12,30,25.80
2007,08,30,12,31,25.90
2007,08,30,12,32,25.90
2007,08,30,12,33,25.70
2007,08,30,12,34,25.60
2007,08,30,12,35,25.50
2007,08,30,12,36,25.50
2007,08,30,12,37,25.40
2007,08,30,12,38,25.30
2007,08,30,12,39,25.20
2007,08,30,12,40,25.20
2007,08,30,12,41,25.20
2007,08,30,12,42,25.20
2007,08,30,12,43,25.10
2007,08,30,12,44,25.10
2007,08,30,12,45,25.10
2007,08,30,12,46,25.20
2007,08,30,12,47,25.20
2007,08,30,12,48,25.20
2007,08,30,12,49,25.20
2007,08,30,12,50,25.20
2007,08,30,12,51,25.20
2007,08,30,12,52,25.10
2007,08,30,12,53,25.10
2007,08,30,12,54,25.00
2007,08,30,12,55,25.10
2007,08,30,12,56,25.10
2007,08,30,12,57,25.10
2007,08,30,12,58,25.20
2007,08,30,12,59,25.20
2007,08,30,13,00,25.20
2007,08,30,13,01,25.20
2007,08,30,13,02,25.20
2007,08,30,13,03,25.20
2007,08,30,13,04,25.20
2007,08,30,13,05,25.20
2007,08,30,13,06,25.10
2007,08,30,13,07,25.20
2007,08,30,13,08,25.20
2007,08,30,13,09,25.20
2007,08,30,13,10,25.10
2007,08,30,13,11,25.00
2007,08,30,13,12,25.00
2007,08,30,13,13,25.10
2007,08,30,13,14,25.10
2007,08,30,13,15,25.00
2007,08,30,13,16,25.00
2007,08,30,13,17,25.00
2007,08,30,13,18,25.00
2007,08,30,13,19,25.00
2007,08,30,13,20,25.10
2007,08,30,13,21,25.10
2007,08,30,13,22,25.20
2007,08,30,13,23,25.20
2007,08,30,13,24,25.10
2007,08,30,13,25,25.20
2007,08,30,13,26,25.30
2007,08,30,13,27,25.30
2007,08,30,13,28,25.40
2007,08,30,13,29,25.40
2007,08,30,13,30,25.40
2007,08,30,13,31,25.30
2007,08,30,13,32,25.30
2007,08,30,13,33,25.30
2007,08,30,13,34,25.20
2007,08,30,13,35,25.20
2007,08,30,13,36,25.20
2007,08,30,13,37,25.20
2007,08,30,13,38,25.20
2007,08,30,13,39,25.20
2007,08,30,13,40,25.20
2007,08,30,13,41,25.30
2007,08,30,13,42,25.20
2007,08,30,13,43,25.20
2007,08,30,13,44,25.20
2007,08,30,13,45,25.20
2007,08,30,13,46,25.20
2007,08,30,13,47,25.20
2007,08,30,13,48,25.30
2007,08,30,13,49,25.40
2007,08,30,13,50,25.40
2007,08,30,13,51,25.30
2007,08,30,13,52,25.30
2007,08,30,13,53,25.20
2007,08,30,13,54,25.20
2007,08,30,13,55,25.20
2007,08,30,13,56,25.30
2007,08,30,13,57,25.30
2007,08,30,13,58,25.30
2007,08,30,13,59,25.20
2007,08,30,14,00,25.30
2007,08,30,14,01,25.40
2007,08,30,14,02,25.50
2007,08,30,14,03,25.50
2007,08,30,14,04,25.50
2007,08,30,14,05,25.40
2007,08,30,14,06,25.40
2007,08,30,14,07,25.40
2007,08,30,14,08,25.50
2007,08,30,14,09,25.60
2007,08,30,14,10,25.60
2007,08,30,14,11,25.60
2007,08,30,14,12,25.50
2007,08,30,14,13,25.50
2007,08,30,14,14,25.40
2007,08,30,14,15,25.40
2007,08,30,14,16,25.40
2007,08,30,14,17,25.40
2007,08,30,14,18,25.50
2007,08,30,14,19,25.50
2007,08,30,14,20,25.40
2007,08,30,14,21,25.40
2007,08,30,14,22,25.30
2007,08,30,14,23,25.30
2007,08,30,14,24,25.30
2007,08,30,14,25,25.30
2007,08,30,14,26,25.30
2007,08,30,14,27,25.20
2007,08,30,14,28,25.20
2007,08,30,14,29,25.30
2007,08,30,14,30,25.40
2007,08,30,14,31,25.40
2007,08,30,14,32,25.50
2007,08,30,14,33,25.40
2007,08,30,14,34,25.40
2007,08,30,14,35,25.40
2007,08,30,14,36,25.40
2007,08,30,14,37,25.50
2007,08,30,14,38,25.40
2007,08,30,14,39,25.30
2007,08,30,14,40,25.30
2007,08,30,14,41,25.30
2007,08,30,14,42,25.40
2007,08,30,14,43,25.50
2007,08,30,14,44,25.50
2007,08,30,14,45,25.50
2007,08,30,14,46,25.50
2007,08,30,14,47,25.50
2007,08,30,14,48,25.50
2007,08,30,14,49,25.40
2007,08,30,14,50,25.40
2007,08,30,14,51,25.40
2007,08,30,14,52,25.40
2007,08,30,14,53,25.30
2007,08,30,14,54,25.20
2007,08,30,14,55,25.20
2007,08,30,14,56,25.30
2007,08,30,14,57,25.30
2007,08,30,14,58,25.30
2007,08,30,14,59,25.30
2007,08,30,15,00,25.30
2007,08,30,15,01,25.30
2007,08,30,15,02,25.40
2007,08,30,15,03,25.40
2007,08,30,15,04,25.50
2007,08,30,15,05,25.50
2007,08,30,15,06,25.50
2007,08,30,15,07,25.60
2007,08,30,15,08,25.60
2007,08,30,15,09,25.60
2007,08,30,15,10,25.60
2007,08,30,15,11,25.60
2007,08,30,15,12,25.70
2007,08,30,15,13,25.70
2007,08,30,15,14,25.70
2007,08,30,15,15,25.70
2007,08,30,15,16,25.60
2007,08,30,15,17,25.50
2007,08,30,15,18,25.40
2007,08,30,15,19,25.40
2007,08,30,15,20,25.40
2007,08,30,15,21,25.50
2007,08,30,15,22,25.50
2007,08,30,15,23,25.50
2007,08,30,15,24,25.50
2007,08,30,15,25,25.50
2007,08,30,15,26,25.40
2007,08,30,15,27,25.40
2007,08,30,15,28,25.50
2007,08,30,15,29,25.50
2007,08,30,15,30,25.50
2007,08,30,15,31,25.60
2007,08,30,15,32,25.60
2007,08,30,15,33,25.60
2007,08,30,15,34,25.60
2007,08,30,15,35,25.50
2007,08,30,15,36,25.40
2007,08,30,15,37,25.40
2007,08,30,15,38,25.30
2007,08,30,15,39,25.30
2007,08,30,15,40,25.30
2007,08,30,15,41,25.30
2007,08,30,15,42,25.30
2007,08,30,15,43,25.20
2007,08,30,15,44,25.20
2007,08,30,15,45,25.10
2007,08,30,15,46,25.10
2007,08,30,15,47,25.10
2007,08,30,15,48,25.20
2007,08,30,15,49,25.20
2007,08,30,15,50,25.20
2007,08,30,15,51,25.20
2007,08,30,15,52,25.20
2007,08,30,15,53,25.20
2007,08,30,15,54,25.20
2007,08,30,15,55,25.30
2007,08,30,15,56,25.30
2007,08,30,15,57,25.30
2007,08,30,15,58,25.20
2007,08,30,15,59,25.20
2007,08,30,16,00,25.20
2007,08,30,16,01,25.10
2007,08,30,16,02,25.10
2007,08,30,16,03,25.20
2007,08,30,16,04,25.10
2007,08,30,16,05,25.10
2007,08,30,16,06,25.10
2007,08,30,16,07,25.20
2007,08,30,16,08,25.10
2007,08,30,16,09,25.00
2007,08,30,16,10,25.00
2007,08,30,16,11,25.00
2007,08,30,16,12,25.00
2007,08,30,16,13,25.00
2007,08,30,16,14,25.00
2007,08,30,16,15,24.90
2007,08,30,16,16,24.90
2007,08,30,16,17,24.90
2007,08,30,16,18,24.80
2007,08,30,16,19,24.80
2007,08,30,16,20,24.80
2007,08,30,16,21,24.80
2007,08,30,16,22,24.80
2007,08,30,16,23,24.70
2007,08,30,16,24,24.70
2007,08,30,16,25,24.80
2007,08,30,16,26,24.80
2007,08,30,16,27,24.80
2007,08,30,16,28,24.70
2007,08,30,16,29,24.60
2007,08,30,16,30,24.40
2007,08,30,16,31,24.30
2007,08,30,16,32,24.30
2007,08,30,16,33,24.20
2007,08,30,16,34,24.10
2007,08,30,16,35,23.90
2007,08,30,16,36,23.90
2007,08,30,16,37,23.80
2007,08,30,16,38,23.80
2007,08,30,16,39,23.70
2007,08,30,16,40,23.80
2007,08,30,16,41,23.80
2007,08,30,16,42,23.70
2007,08,30,16,43,23.70
2007,08,30,16,44,23.70
2007,08,30,16,45,23.60
2007,08,30,16,46,23.40
2007,08,30,16,47,23.40
2007,08,30,16,48,23.40
2007,08,30,16,49,23.40
2007,08,30,16,50,23.40
2007,08,30,16,51,23.40
2007,08,30,16,52,23.40
2007,08,30,16,53,23.40
2007,08,30,16,54,23.40
2007,08,30,16,55,23.30
2007,08,30,16,56,23.30
2007,08,30,16,57,23.30
2007,08,30,16,58,23.30
2007,08,30,16,59,23.40
2007,08,30,17,00,23.40
2007,08,30,17,01,23.40
2007,08,30,17,02,23.40
2007,08,30,17,03,23.40
2007,08,30,17,04,23.40
2007,08,30,17,05,23.40
2007,08,30,17,06,23.40
2007,08,30,17,07,23.30
2007,08,30,17,08,23.30
2007,08,30,17,09,23.30
2007,08,30,17,10,23.30
2007,08,30,17,11,23.20
2007,08,30,17,12,23.10
2007,08,30,17,13,23.10
2007,08,30,17,14,23.10
2007,08,30,17,15,23.10
2007,08,30,17,16,23.20
2007,08,30,17,17,23.20
2007,08,30,17,18,23.10
2007,08,30,17,19,23.00